Location: Tel Aviv
(32.0670°N, 34.7670°E)
Time: 05:58:50
(UTC+03:00)

FO-29 - Visible Passes

Search period start: 29 March 2023 00:00
Search period end: 08 April 2023 00:00
Orbit: 801 x 1320 km, 98.5° (Epoch: 28 March)

Date Brightness Start Highest point End Pass type
(mag) Time Alt. Az. Time Alt. Az. Time Alt. Az.
29 Mar 11.8 04:33:21 10° NE 04:39:20 26° E 04:44:48 10° SSE visible
30 Mar 10.3 05:22:17 10° NNE 05:29:42 67° E 05:36:15 10° S visible
31 Mar 11.9 04:28:35 10° NE 04:34:13 24° E 04:39:22 10° SE visible
01 Apr 10.4 05:17:22 10° NNE 05:24:37 62° E 05:31:02 10° S visible
02 Apr 12.0 04:23:50 10° NE 04:29:04 22° E 04:33:53 10° SE visible
03 Apr 10.5 05:12:27 10° NNE 05:19:32 57° E 05:25:46 10° S visible
04 Apr 12.1 04:19:08 10° NE 04:23:55 19° E 04:28:21 10° SE visible
04 Apr 9.9 06:02:25 10° N 06:09:28 58° WNW 06:15:41 10° SSW visible
05 Apr 10.6 05:07:32 10° NNE 05:14:26 52° E 05:20:30 10° S visible
06 Apr 12.2 04:14:28 10° NE 04:18:46 17° E 04:22:45 10° SE visible
06 Apr 9.8 05:57:25 10° N 06:04:24 62° WNW 06:10:33 10° SSW visible
07 Apr 10.7 05:02:37 10° NNE 05:09:18 47° E 05:15:12 10° S visible
